Imperial, NE

1:48 AM MDT on May 23, 2017 (GMT -0600)
Imperial Municipal

Weather History for KIML - April, 2013

Change the Weather History Date:

Wednesday, April 17, 2013

  Actual Average Record
Temperature  
Mean Temperature 31 °F 49 °F  
Max Temperature 36 °F 63 °F 91 °F (1994)
Min Temperature 25 °F 35 °F 18 °F (1921)
Degree Days  
Heating Degree Days 34 16  
Month to date heating degree days 392 318  
Cooling Degree Days 0 0  
Month to date cooling degree days 0 0  
Year to date cooling degree days 0 0  
Moisture  
Dew Point 26 °F    
Average Humidity 85    
Maximum Humidity 100    
Minimum Humidity 70    
Precipitation  
Precipitation 0.05 in 0.07 in 1.00 in (2009)
Sea Level Pressure  
Sea Level Pressure 30.03 in    
Wind  
Wind Speed 19 mph (NNE)    
Max Wind Speed 30 mph    
Max Gust Speed 36 mph    
Visibility 4 miles    
Events Rain , Snow    
T = Trace of Precipitation, MM = Missing Value Source: NWS Daily Summary

Daily Weather History Graph

Daily Weather History Graph

Search for Another Location

Airport or City:

Trip Planner

Search our weather history database for the weather conditions in past years. The results will help you decide how hot, cold, wet, or windy it might be!

Date:

Astronomy

Apr. 17, 2013 Rise Set
Actual Time 6:04 AM MDT 7:28 PM MDT
Civil Twilight 5:36 AM MDT 7:56 PM MDT
Nautical Twilight 5:01 AM MDT 8:30 PM MDT
Astronomical Twilight 4:26 AM MDT 9:07 PM MDT
Moon 11:19 AM MDT (4/17) 1:07 AM MDT (4/17)
Length of Visible Light 14h 20m
Length of Day
13h 23m
Waxing Crescent, 43% of the Moon is Illuminated
Apr 17
Waxing Crescent
Apr 18
First Quarter
Apr 25
Full
May 2
Last Quarter
May 9
New

Hourly Weather History & Observations

Time (MDT) Temp. Windchill Dew Point Humidity Pressure Visibility Wind Dir Wind Speed Gust Speed Precip Events Conditions
12:00 AM 35.6 °F 24.8 °F 26.6 °F 70% 30.05 in 10.0 mi East 19.6 mph - N/A   Overcast
12:53 AM 36.0 °F 27.5 °F 27.0 °F 70% 30.11 in 10.0 mi East 12.7 mph - N/A   Overcast
1:05 AM 35.6 °F 27.5 °F 26.6 °F 70% 30.04 in 10.0 mi East 11.5 mph - N/A   Overcast
1:15 AM 35.6 °F 28.0 °F 26.6 °F 70% 30.04 in 10.0 mi ENE 10.4 mph - N/A   Overcast
1:53 AM 34.0 °F 28.0 °F 27.0 °F 75% 30.07 in 10.0 mi ENE 6.9 mph - N/A   Mostly Cloudy
2:53 AM 32.0 °F 22.5 °F 28.9 °F 88% 30.06 in 10.0 mi NE 12.7 mph 21.9 mph N/A   Overcast
3:01 AM 32.0 °F 21.6 °F 28.4 °F 87% 30.00 in 10.0 mi NE 15.0 mph - N/A   Overcast
3:08 AM 32.0 °F 21.6 °F 28.4 °F 87% 30.00 in 10.0 mi NE 15.0 mph - N/A   Overcast
3:53 AM 32.0 °F 22.1 °F 28.0 °F 85% 30.06 in 10.0 mi NE 13.8 mph - N/A   Overcast
4:53 AM 30.9 °F 20.7 °F 28.0 °F 89% 30.06 in 10.0 mi NE 13.8 mph - N/A   Overcast
5:53 AM 30.9 °F 20.2 °F 28.0 °F 89% 30.06 in 7.0 mi NE 15.0 mph 20.7 mph N/A   Overcast
6:37 AM 30.2 °F 18.9 °F 28.4 °F 93% 30.01 in 2.5 mi NE 16.1 mph - N/A   Overcast
6:45 AM 30.2 °F 19.8 °F 28.4 °F 93% 30.01 in 2.0 mi NE 13.8 mph - 0.00 in Rain Light Freezing Rain
6:53 AM 30.0 °F 19.5 °F 28.9 °F 96% 30.08 in 1.8 mi NE 13.8 mph - 0.00 in Rain Light Freezing Rain
7:18 AM 30.2 °F 19.3 °F 28.4 °F 93% 30.01 in 2.0 mi NE 15.0 mph 21.9 mph 0.00 in Rain Light Freezing Rain
7:27 AM 30.2 °F 18.1 °F 28.4 °F 93% 30.01 in 3.0 mi NE 18.4 mph - 0.01 in Rain Light Freezing Rain
7:53 AM 28.4 °F 16.6 °F 26.6 °F 93% 30.00 in 5.0 mi NE 16.1 mph - N/A Rain Light Freezing Rain
8:25 AM 28.4 °F 16.6 °F 26.6 °F 93% 30.00 in 5.0 mi NE 16.1 mph - 0.00 in   Overcast
8:53 AM 28.9 °F 16.1 °F 27.0 °F 92% 30.07 in 5.0 mi NE 19.6 mph 25.3 mph 0.00 in   Overcast
9:25 AM 28.4 °F 16.2 °F 26.6 °F 93% 29.99 in 2.5 mi NE 17.3 mph - N/A   Overcast
9:53 AM 28.9 °F 16.9 °F 27.0 °F 92% 30.06 in 1.8 mi NNE 17.3 mph - N/A   Overcast
10:18 AM 28.4 °F 16.2 °F 26.6 °F 93% 29.98 in 2.0 mi NE 17.3 mph 23.0 mph N/A   Overcast
10:53 AM 28.9 °F 16.5 °F 28.0 °F 96% 30.05 in 1.8 mi NE 18.4 mph - N/A   Overcast
11:07 AM 28.4 °F 15.8 °F 28.4 °F 100% 29.97 in 1.5 mi NNE 18.4 mph - 0.00 in Rain Light Freezing Rain
11:53 AM 28.9 °F 16.5 °F 28.0 °F 96% 30.04 in 1.8 mi NNE 18.4 mph - 0.00 in Rain Light Freezing Rain
12:53 PM 30.0 °F 17.9 °F 28.0 °F 92% 30.03 in - NNE 18.4 mph - 0.00 in Rain Light Freezing Rain
1:30 PM 30.2 °F 18.5 °F 28.4 °F 93% 29.96 in 2.0 mi NNE 17.3 mph - 0.00 in Rain Light Freezing Rain
1:53 PM 30.0 °F 17.5 °F 28.0 °F 92% 30.03 in 2.5 mi North 19.6 mph 24.2 mph 0.00 in Rain Light Freezing Rain
2:01 PM 30.2 °F 18.5 °F 28.4 °F 93% 29.95 in 3.0 mi NNE 17.3 mph - 0.00 in Rain Light Freezing Rain
2:53 PM 30.9 °F 18.1 °F 28.9 °F 92% 29.99 in 9.0 mi North 21.9 mph 27.6 mph 0.00 in   Overcast
3:53 PM 30.9 °F 18.1 °F 28.0 °F 89% 30.02 in 10.0 mi North 21.9 mph 28.8 mph N/A   Overcast
4:03 PM 30.2 °F 16.8 °F 28.4 °F 93% 29.96 in 10.0 mi North 23.0 mph 29.9 mph N/A   Overcast
4:53 PM 30.0 °F 16.3 °F 27.0 °F 88% 30.06 in 4.0 mi North 24.2 mph 29.9 mph 0.00 in Rain Light Freezing Rain
5:03 PM 28.4 °F 13.8 °F 26.6 °F 93% 29.98 in 4.0 mi North 25.3 mph 31.1 mph 0.00 in Rain Light Freezing Rain
5:15 PM 28.4 °F 13.5 °F 26.6 °F 93% 29.97 in 4.0 mi North 26.5 mph 32.2 mph 0.00 in Rain Light Freezing Rain
5:23 PM 28.4 °F 14.1 °F 26.6 °F 93% 29.98 in 2.5 mi North 24.2 mph 34.5 mph 0.00 in Rain Light Freezing Rain
5:31 PM 28.4 °F 14.1 °F 26.6 °F 93% 29.98 in 2.5 mi NNE 24.2 mph 31.1 mph 0.00 in Rain Light Freezing Rain
5:34 PM 28.4 °F 13.8 °F 26.6 °F 93% 29.98 in 3.0 mi North 25.3 mph 33.4 mph 0.00 in Rain Light Freezing Rain
5:42 PM 28.4 °F 12.7 °F 26.6 °F 93% 29.99 in 3.0 mi North 29.9 mph 35.7 mph 0.01 in Snow Light Snow
5:50 PM 28.4 °F 14.4 °F 26.6 °F 93% 29.98 in 1.8 mi North 23.0 mph 35.7 mph 0.01 in Snow Light Snow
5:53 PM 28.0 °F 13.3 °F 26.1 °F 92% 30.06 in 1.5 mi North 25.3 mph 34.5 mph 0.01 in Snow Light Snow
6:12 PM 28.4 °F 13.3 °F 24.8 °F 86% 29.97 in 0.8 mi North 27.6 mph 32.2 mph 0.01 in Snow Light Snow
6:46 PM 26.6 °F 12.4 °F 24.8 °F 93% 29.99 in 1.0 mi North 21.9 mph 29.9 mph 0.01 in Snow Light Snow
6:53 PM 27.0 °F 12.2 °F 25.0 °F 92% 30.09 in 1.0 mi North 24.2 mph 32.2 mph 0.01 in Snow Light Snow
7:35 PM 26.6 °F 12.7 °F 24.8 °F 93% 30.03 in 2.0 mi North 20.7 mph 31.1 mph 0.01 in Snow Light Snow
7:53 PM 26.1 °F 11.0 °F 24.1 °F 92% 30.13 in 1.5 mi North 24.2 mph 29.9 mph 0.01 in Snow Light Snow
8:53 PM 26.1 °F 12.3 °F 23.0 °F 88% 30.15 in 1.8 mi North 19.6 mph 33.4 mph 0.00 in Snow Light Snow
9:12 PM 26.6 °F 11.7 °F 23.0 °F 86% 30.04 in 2.0 mi North 24.2 mph 32.2 mph 0.01 in Snow Light Snow
9:25 PM 26.6 °F 11.7 °F 23.0 °F 86% 30.05 in 2.0 mi North 24.2 mph 31.1 mph 0.01 in Snow Light Snow
9:32 PM 26.6 °F 10.6 °F 23.0 °F 86% 30.05 in 1.8 mi North 28.8 mph 33.4 mph 0.01 in Snow Light Snow
9:53 PM 25.0 °F 9.9 °F 23.0 °F 92% 30.14 in 1.8 mi North 23.0 mph 29.9 mph 0.01 in Snow Light Snow
10:02 PM 24.8 °F 10.0 °F 23.0 °F 93% 30.04 in 2.0 mi North 21.9 mph 31.1 mph 0.00 in Snow Light Snow
10:14 PM 24.8 °F 9.6 °F 21.2 °F 86% 30.03 in 4.0 mi North 23.0 mph 31.1 mph 0.00 in Snow Light Snow
10:53 PM 26.1 °F 10.7 °F 21.9 °F 84% 30.09 in 5.0 mi North 25.3 mph 34.5 mph 0.00 in Snow Light Snow
11:53 PM 26.1 °F 10.7 °F 21.9 °F 84% 30.11 in 7.0 mi North 25.3 mph 32.2 mph 0.00 in Snow Light Snow